User: anonymous   Login
Location: Unspecified
(0.0000°N, 0.0000°E)
Time: 01:06:45
(UTC+00:00)
Language:

STARLINK-36483 - Orbit

View from above orbital plane
View from above orbital plane
View from above satellite
View from above satellite

Ground track
Ground track

The orbit is defined by the following mean orbital elements,

1 67330U          26145.56996061 +.00000000 +00000-0 +55296-3 0 00002
2 67330  43.0001 251.3557 0001265 266.9889  93.0818 15.27585501    07
Epoch (UTC): 25 May 2026 13:40:44
Eccentricity: 0.0001265
inclination: 43.0001°
perigee height: 482 km
apogee height: 484 km
right ascension of ascending node: 251.3557°
argument of perigee: 266.9889°
revolutions per day: 15.27585501
mean anomaly at epoch: 93.0818°

The dashed part of the orbit path shows where the satellite is in the earth's shadow,  

DLR